Time,TemperatureF,DewpointF,PressureIn,WindDirection,WindDirectionDegrees,WindSpeedMPH,WindSpeedGustMPH,Humidity,HourlyPrecipIn,Conditions,Clouds,dailyrainin,SoftwareType,DateUTC
2013-08-13 00:01:00,67.3,41.5,29.91,NNW,328,0.0,0.0,39,0.00,,,0.00,WeatherCatV1.21B27,2013-08-13 07:01:00,
2013-08-13 00:06:00,67.3,41.5,29.91,NNW,328,0.0,0.0,39,0.00,,,0.00,WeatherCatV1.21B27,2013-08-13 07:06:00,
2013-08-13 00:11:00,67.2,41.4,29.91,NNW,328,0.0,0.0,39,0.00,,,0.00,WeatherCatV1.21B27,2013-08-13 07:11:00,
2013-08-13 00:16:00,67.1,41.3,29.91,NNW,328,0.0,0.0,39,0.00,,,0.00,WeatherCatV1.21B27,2013-08-13 07:16:00,
2013-08-13 00:21:00,66.9,41.8,29.91,NNW,328,0.0,0.0,40,0.00,,,0.00,WeatherCatV1.21B27,2013-08-13 07:21:00,
2013-08-13 00:26:00,66.7,43.5,29.91,NNW,329,0.0,0.0,43,0.00,,,0.00,WeatherCatV1.21B27,2013-08-13 07:26:00,
2013-08-13 00:31:00,66.5,44.5,29.91,NNW,329,0.0,1.0,45,0.00,,,0.00,WeatherCatV1.21B27,2013-08-13 07:31:00,
2013-08-13 00:36:00,66.1,43.5,29.91,NNW,329,0.0,1.0,44,0.00,,,0.00,WeatherCatV1.21B27,2013-08-13 07:36:00,
2013-08-13 00:41:00,65.7,43.8,29.91,NNW,329,0.0,0.0,45,0.00,,,0.00,WeatherCatV1.21B27,2013-08-13 07:41:00,
2013-08-13 00:46:00,65.6,43.7,29.91,NNW,329,0.0,0.0,45,0.00,,,0.00,WeatherCatV1.21B27,2013-08-13 07:46:00,
2013-08-13 00:51:00,65.4,43.5,29.91,NNW,329,0.0,0.0,45,0.00,,,0.00,WeatherCatV1.21B27,2013-08-13 07:51:00,
2013-08-13 00:56:00,65.4,45.2,29.91,NNW,329,0.0,0.0,48,0.00,,,0.00,WeatherCatV1.21B27,2013-08-13 07:56:00,
2013-08-13 01:01:00,65.5,45.8,29.91,NNW,329,0.0,0.0,49,0.00,,,0.00,WeatherCatV1.21B27,2013-08-13 08:01:00,
2013-08-13 01:06:00,65.6,45.4,29.91,NNW,329,0.0,0.0,48,0.00,,,0.00,WeatherCatV1.21B27,2013-08-13 08:06:00,
2013-08-13 01:11:00,65.6,45.4,29.91,NNW,329,0.0,0.0,48,0.00,,,0.00,WeatherCatV1.21B27,2013-08-13 08:11:00,
2013-08-13 01:16:00,65.5,44.7,29.91,NNW,329,0.0,0.0,47,0.00,,,0.00,WeatherCatV1.21B27,2013-08-13 08:16:00,
2013-08-13 01:21:00,65.5,44.7,29.91,NNW,329,0.0,0.0,47,0.00,,,0.00,WeatherCatV1.21B27,2013-08-13 08:21:00,
2013-08-13 01:26:00,65.5,41.8,29.91,NNW,329,0.0,0.0,42,0.00,,,0.00,WeatherCatV1.21B27,2013-08-13 08:26:00,
2013-08-13 01:31:00,65.4,44.1,29.91,NNW,329,0.0,0.0,46,0.00,,,0.00,WeatherCatV1.21B27,2013-08-13 08:31:00,
2013-08-13 01:36:00,65.2,42.7,29.91,NNW,329,1.0,1.0,44,0.00,,,0.00,WeatherCatV1.21B27,2013-08-13 08:36:00,
2013-08-13 01:41:00,64.9,42.5,29.91,NNW,329,1.0,1.0,44,0.00,,,0.00,WeatherCatV1.21B27,2013-08-13 08:41:00,
2013-08-13 01:46:00,64.6,42.2,29.90,NNW,329,0.0,0.0,44,0.00,,,0.00,WeatherCatV1.21B27,2013-08-13 08:46:00,
2013-08-13 01:51:00,64.4,43.7,29.90,NNW,329,0.0,0.0,47,0.00,,,0.00,WeatherCatV1.21B27,2013-08-13 08:51:00,
2013-08-13 01:56:00,64.3,45.8,29.90,NNW,329,0.0,0.0,51,0.00,,,0.00,WeatherCatV1.21B27,2013-08-13 08:56:00,
2013-08-13 02:01:00,64.3,46.3,29.90,NNW,329,0.0,0.0,52,0.00,,,0.00,WeatherCatV1.21B27,2013-08-13 09:01:00,
2013-08-13 02:06:00,64.3,47.3,29.90,NNW,329,0.0,0.0,54,0.00,,,0.00,WeatherCatV1.21B27,2013-08-13 09:06:00,
2013-08-13 02:11:00,64.3,47.3,29.90,NNW,329,0.0,0.0,54,0.00,,,0.00,WeatherCatV1.21B27,2013-08-13 09:11:00,
2013-08-13 02:16:00,64.3,47.8,29.90,NNW,329,0.0,1.0,55,0.00,,,0.00,WeatherCatV1.21B27,2013-08-13 09:16:00,
2013-08-13 02:21:00,64.3,48.3,29.90,NNW,329,0.0,0.0,56,0.00,,,0.00,WeatherCatV1.21B27,2013-08-13 09:21:00,
2013-08-13 02:26:00,64.2,48.2,29.90,NNW,329,0.0,0.0,56,0.00,,,0.00,WeatherCatV1.21B27,2013-08-13 09:26:00,
2013-08-13 02:31:00,64.1,48.1,29.90,NNW,329,0.0,0.0,56,0.00,,,0.00,WeatherCatV1.21B27,2013-08-13 09:31:00,
2013-08-13 02:36:00,64.1,48.1,29.90,NNW,329,0.0,0.0,56,0.00,,,0.00,WeatherCatV1.21B27,2013-08-13 09:36:00,
2013-08-13 02:41:00,64.1,47.6,29.90,NNW,329,0.0,0.0,55,0.00,,,0.00,WeatherCatV1.21B27,2013-08-13 09:41:00,
2013-08-13 02:46:00,64.1,47.6,29.90,NNW,329,0.0,0.0,55,0.00,,,0.00,WeatherCatV1.21B27,2013-08-13 09:46:00,
2013-08-13 02:51:00,64.1,47.1,29.90,NNW,329,0.0,0.0,54,0.00,,,0.00,WeatherCatV1.21B27,2013-08-13 09:51:00,
2013-08-13 02:56:00,64.1,47.1,29.90,NNW,329,0.0,0.0,54,0.00,,,0.00,WeatherCatV1.21B27,2013-08-13 09:56:00,
2013-08-13 03:01:00,64.1,47.6,29.90,NNW,329,0.0,0.0,55,0.00,,,0.00,WeatherCatV1.21B27,2013-08-13 10:01:00,
2013-08-13 03:06:00,64.1,48.1,29.90,NNW,329,0.0,0.0,56,0.00,,,0.00,WeatherCatV1.21B27,2013-08-13 10:06:00,
2013-08-13 03:11:00,64.1,48.5,29.90,NNW,329,0.0,0.0,57,0.00,,,0.00,WeatherCatV1.21B27,2013-08-13 10:11:00,
2013-08-13 03:16:00,64.1,48.5,29.89,NNW,329,0.0,0.0,57,0.00,,,0.00,WeatherCatV1.21B27,2013-08-13 10:16:00,
2013-08-13 03:21:00,64.1,48.5,29.89,NNW,329,0.0,0.0,57,0.00,,,0.00,WeatherCatV1.21B27,2013-08-13 10:21:00,
2013-08-13 03:26:00,64.1,47.1,29.89,NNW,329,0.0,0.0,54,0.00,,,0.00,WeatherCatV1.21B27,2013-08-13 10:26:00,
2013-08-13 03:31:00,64.2,47.2,29.89,NNW,329,0.0,0.0,54,0.00,,,0.00,WeatherCatV1.21B27,2013-08-13 10:31:00,
2013-08-13 03:36:00,64.4,46.9,29.89,NNW,329,0.0,0.0,53,0.00,,,0.00,WeatherCatV1.21B27,2013-08-13 10:36:00,
2013-08-13 03:41:00,64.5,47.0,29.89,NNW,329,0.0,0.0,53,0.00,,,0.00,WeatherCatV1.21B27,2013-08-13 10:41:00,
2013-08-13 03:46:00,64.6,47.1,29.89,NNW,329,0.0,0.0,53,0.00,,,0.00,WeatherCatV1.21B27,2013-08-13 10:46:00,
2013-08-13 03:51:00,64.7,46.7,29.89,NNW,329,0.0,0.0,52,0.00,,,0.00,WeatherCatV1.21B27,2013-08-13 10:51:00,
2013-08-13 03:56:00,64.7,46.7,29.89,NNW,329,0.0,0.0,52,0.00,,,0.00,WeatherCatV1.21B27,2013-08-13 10:56:00,
2013-08-13 04:01:00,64.6,46.1,29.89,NNW,329,0.0,0.0,51,0.00,,,0.00,WeatherCatV1.21B27,2013-08-13 11:01:00,
2013-08-13 04:06:00,64.6,46.6,29.89,NNW,329,0.0,0.0,52,0.00,,,0.00,WeatherCatV1.21B27,2013-08-13 11:06:00,
2013-08-13 04:11:00,64.5,46.0,29.89,NNW,329,0.0,0.0,51,0.00,,,0.00,WeatherCatV1.21B27,2013-08-13 11:11:00,
2013-08-13 04:16:00,64.2,44.6,29.89,NNW,329,0.0,0.0,49,0.00,,,0.00,WeatherCatV1.21B27,2013-08-13 11:16:00,
2013-08-13 04:21:00,64.1,44.5,29.89,NNW,329,0.0,0.0,49,0.00,,,0.00,WeatherCatV1.21B27,2013-08-13 11:21:00,
2013-08-13 04:26:00,64.1,44.5,29.89,NNW,329,0.0,0.0,49,0.00,,,0.00,WeatherCatV1.21B27,2013-08-13 11:26:00,
2013-08-13 04:31:00,63.9,44.4,29.88,NNW,329,0.0,0.0,49,0.00,,,0.00,WeatherCatV1.21B27,2013-08-13 11:31:00,
2013-08-13 04:36:00,63.6,43.5,29.88,NNW,329,0.0,0.0,48,0.00,,,0.00,WeatherCatV1.21B27,2013-08-13 11:36:00,
2013-08-13 04:41:00,63.5,44.0,29.88,NNW,329,0.0,0.0,49,0.00,,,0.00,WeatherCatV1.21B27,2013-08-13 11:41:00,
2013-08-13 04:46:00,63.4,43.4,29.89,NNW,329,0.0,0.0,48,0.00,,,0.00,WeatherCatV1.21B27,2013-08-13 11:46:00,
2013-08-13 04:51:00,63.3,43.8,29.89,NNW,329,0.0,0.0,49,0.00,,,0.00,WeatherCatV1.21B27,2013-08-13 11:51:00,
2013-08-13 04:56:00,63.3,43.3,29.89,NNW,329,0.0,0.0,48,0.00,,,0.00,WeatherCatV1.21B27,2013-08-13 11:56:00,
2013-08-13 05:01:00,63.4,43.9,29.88,NNW,329,0.0,0.0,49,0.00,,,0.00,WeatherCatV1.21B27,2013-08-13 12:01:00,
2013-08-13 05:06:00,63.5,43.5,29.88,NNW,329,0.0,0.0,48,0.00,,,0.00,WeatherCatV1.21B27,2013-08-13 12:06:00,
2013-08-13 05:11:00,63.6,43.0,29.88,NNW,329,0.0,0.0,47,0.00,,,0.00,WeatherCatV1.21B27,2013-08-13 12:11:00,
2013-08-13 05:16:00,63.6,42.4,29.88,NNW,329,0.0,0.0,46,0.00,,,0.00,WeatherCatV1.21B27,2013-08-13 12:16:00,
2013-08-13 05:21:00,63.7,42.5,29.88,NNW,329,0.0,0.0,46,0.00,,,0.00,WeatherCatV1.21B27,2013-08-13 12:21:00,
2013-08-13 05:26:00,63.8,43.2,29.88,NNW,329,0.0,0.0,47,0.00,,,0.00,WeatherCatV1.21B27,2013-08-13 12:26:00,
2013-08-13 05:31:00,63.9,43.3,29.88,NNW,329,0.0,0.0,47,0.00,,,0.00,WeatherCatV1.21B27,2013-08-13 12:31:00,
2013-08-13 05:36:00,64.1,42.9,29.88,NNW,329,0.0,0.0,46,0.00,,,0.00,WeatherCatV1.21B27,2013-08-13 12:36:00,
2013-08-13 05:41:00,64.2,42.4,29.88,NNW,329,0.0,0.0,45,0.00,,,0.00,WeatherCatV1.21B27,2013-08-13 12:41:00,
2013-08-13 05:46:00,64.2,42.4,29.88,NNW,329,0.0,0.0,45,0.00,,,0.00,WeatherCatV1.21B27,2013-08-13 12:46:00,
2013-08-13 05:51:00,64.2,41.8,29.88,NNW,329,0.0,0.0,44,0.00,,,0.00,WeatherCatV1.21B27,2013-08-13 12:51:00,
2013-08-13 05:56:00,64.1,41.7,29.88,NNW,329,0.0,0.0,44,0.00,,,0.00,WeatherCatV1.21B27,2013-08-13 12:56:00,
2013-08-13 06:01:00,64.1,41.7,29.88,NNW,329,0.0,0.0,44,0.00,,,0.00,WeatherCatV1.21B27,2013-08-13 13:01:00,
2013-08-13 06:06:00,64.0,41.7,29.88,NNW,329,0.0,0.0,44,0.00,,,0.00,WeatherCatV1.21B27,2013-08-13 13:06:00,
2013-08-13 06:11:00,63.9,41.5,29.88,NNW,329,0.0,0.0,44,0.00,,,0.00,WeatherCatV1.21B27,2013-08-13 13:11:00,
2013-08-13 06:16:00,63.9,41.0,29.88,NNW,329,0.0,0.0,43,0.00,,,0.00,WeatherCatV1.21B27,2013-08-13 13:16:00,
2013-08-13 06:21:00,64.0,40.4,29.88,NNW,329,0.0,0.0,42,0.00,,,0.00,WeatherCatV1.21B27,2013-08-13 13:21:00,
2013-08-13 06:26:00,64.0,40.4,29.88,NNW,329,0.0,0.0,42,0.00,,,0.00,WeatherCatV1.21B27,2013-08-13 13:26:00,
2013-08-13 06:31:00,64.0,40.4,29.89,NNW,329,0.0,0.0,42,0.00,,,0.00,WeatherCatV1.21B27,2013-08-13 13:31:00,
2013-08-13 06:36:00,63.9,39.7,29.89,NNW,329,0.0,0.0,41,0.00,,,0.00,WeatherCatV1.21B27,2013-08-13 13:36:00,
2013-08-13 06:41:00,63.9,40.3,29.89,NNW,329,0.0,0.0,42,0.00,,,0.00,WeatherCatV1.21B27,2013-08-13 13:41:00,
2013-08-13 06:46:00,63.8,42.0,29.89,NNW,329,0.0,0.0,45,0.00,,,0.00,WeatherCatV1.21B27,2013-08-13 13:46:00,
2013-08-13 06:51:00,63.6,42.4,29.89,NNW,329,0.0,0.0,46,0.00,,,0.00,WeatherCatV1.21B27,2013-08-13 13:51:00,
2013-08-13 06:56:00,63.4,41.1,29.89,NNW,329,0.0,0.0,44,0.00,,,0.00,WeatherCatV1.21B27,2013-08-13 13:56:00,
2013-08-13 07:01:00,63.4,43.4,29.89,NNW,329,0.0,0.0,48,0.00,,,0.00,WeatherCatV1.21B27,2013-08-13 14:01:00,
2013-08-13 07:06:00,63.5,44.5,29.89,NNW,329,0.0,0.0,50,0.00,,,0.00,WeatherCatV1.21B27,2013-08-13 14:06:00,
2013-08-13 07:11:00,63.6,45.7,29.89,NNW,329,0.0,0.0,52,0.00,,,0.00,WeatherCatV1.21B27,2013-08-13 14:11:00,
2013-08-13 07:16:00,63.7,45.7,29.89,NNW,329,0.0,0.0,52,0.00,,,0.00,WeatherCatV1.21B27,2013-08-13 14:16:00,
2013-08-13 07:21:00,63.9,45.4,29.89,NNW,329,0.0,0.0,51,0.00,,,0.00,WeatherCatV1.21B27,2013-08-13 14:21:00,
2013-08-13 07:26:00,64.1,46.1,29.89,NNW,329,0.0,0.0,52,0.00,,,0.00,WeatherCatV1.21B27,2013-08-13 14:26:00,
2013-08-13 07:31:00,64.3,45.8,29.89,NNW,329,0.0,0.0,51,0.00,,,0.00,WeatherCatV1.21B27,2013-08-13 14:31:00,
2013-08-13 07:36:00,64.6,46.6,29.89,NNW,329,0.0,0.0,52,0.00,,,0.00,WeatherCatV1.21B27,2013-08-13 14:36:00,
2013-08-13 07:41:00,64.8,46.2,29.89,NNW,329,0.0,0.0,51,0.00,,,0.00,WeatherCatV1.21B27,2013-08-13 14:41:00,
2013-08-13 07:46:00,65.2,45.5,29.90,NNW,329,0.0,0.0,49,0.00,,,0.00,WeatherCatV1.21B27,2013-08-13 14:46:00,
2013-08-13 07:51:00,65.6,45.9,29.90,NNW,329,0.0,0.0,49,0.00,,,0.00,WeatherCatV1.21B27,2013-08-13 14:51:00,
2013-08-13 07:56:00,65.8,46.1,29.90,NNW,329,0.0,0.0,49,0.00,,,0.00,WeatherCatV1.21B27,2013-08-13 14:56:00,
2013-08-13 08:01:00,66.1,45.8,29.90,NNW,329,0.0,0.0,48,0.00,,,0.00,WeatherCatV1.21B27,2013-08-13 15:01:00,
2013-08-13 08:06:00,66.4,46.7,29.90,NNW,329,0.0,0.0,49,0.00,,,0.00,WeatherCatV1.21B27,2013-08-13 15:06:00,
2013-08-13 08:11:00,66.6,45.7,29.90,NNW,329,0.0,0.0,47,0.00,,,0.00,WeatherCatV1.21B27,2013-08-13 15:11:00,
2013-08-13 08:16:00,66.8,46.5,29.91,NNW,329,0.0,0.0,48,0.00,,,0.00,WeatherCatV1.21B27,2013-08-13 15:16:00,
2013-08-13 08:21:00,67.0,46.1,29.91,NNW,329,0.0,0.0,47,0.00,,,0.00,WeatherCatV1.21B27,2013-08-13 15:21:00,
2013-08-13 08:26:00,67.4,45.9,29.91,NNW,329,0.0,0.0,46,0.00,,,0.00,WeatherCatV1.21B27,2013-08-13 15:26:00,
2013-08-13 08:31:00,67.7,44.4,29.91,NNW,329,0.0,0.0,43,0.00,,,0.00,WeatherCatV1.21B27,2013-08-13 15:31:00,
2013-08-13 08:36:00,68.2,45.4,29.91,NNW,329,0.0,0.0,44,0.00,,,0.00,WeatherCatV1.21B27,2013-08-13 15:36:00,
2013-08-13 08:41:00,68.6,46.4,29.91,NNW,330,0.0,0.0,45,0.00,,,0.00,WeatherCatV1.21B27,2013-08-13 15:41:00,
2013-08-13 08:46:00,68.9,47.3,29.91,NNW,334,0.0,0.0,46,0.00,,,0.00,WeatherCatV1.21B27,2013-08-13 15:46:00,
2013-08-13 08:51:00,69.4,47.1,29.91,NNE,19,0.0,0.0,45,0.00,,,0.00,WeatherCatV1.21B27,2013-08-13 15:51:00,
2013-08-13 08:56:00,69.7,48.0,29.91,NNE,19,0.0,0.0,46,0.00,,,0.00,WeatherCatV1.21B27,2013-08-13 15:56:00,
2013-08-13 09:01:00,70.1,47.8,29.91,NNE,24,0.0,0.0,45,0.00,,,0.00,WeatherCatV1.21B27,2013-08-13 16:01:00,
2013-08-13 09:06:00,70.4,47.4,29.91,ENE,64,0.0,1.0,44,0.00,,,0.00,WeatherCatV1.21B27,2013-08-13 16:06:00,
2013-08-13 09:11:00,70.9,48.5,29.91,ENE,69,0.0,0.0,45,0.00,,,0.00,WeatherCatV1.21B27,2013-08-13 16:11:00,
2013-08-13 09:16:00,71.3,48.2,29.91,East,95,1.0,1.0,44,0.00,,,0.00,WeatherCatV1.21B27,2013-08-13 16:16:00,
2013-08-13 09:21:00,71.6,48.5,29.91,ESE,108,1.0,2.0,44,0.00,,,0.00,WeatherCatV1.21B27,2013-08-13 16:21:00,
2013-08-13 09:26:00,71.7,48.6,29.91,ESE,115,1.0,1.0,44,0.00,,,0.00,WeatherCatV1.21B27,2013-08-13 16:26:00,
2013-08-13 09:31:00,71.9,49.4,29.91,SE,127,0.0,2.0,45,0.00,,,0.00,WeatherCatV1.21B27,2013-08-13 16:31:00,
2013-08-13 09:36:00,72.1,51.3,29.91,SE,127,0.0,1.0,48,0.00,,,0.00,WeatherCatV1.21B27,2013-08-13 16:36:00,
2013-08-13 09:41:00,72.2,50.8,29.91,SE,138,0.0,1.0,47,0.00,,,0.00,WeatherCatV1.21B27,2013-08-13 16:41:00,
2013-08-13 09:46:00,72.3,50.9,29.90,SE,138,0.0,1.0,47,0.00,,,0.00,WeatherCatV1.21B27,2013-08-13 16:46:00,
2013-08-13 09:51:00,72.5,51.1,29.90,SE,138,0.0,2.0,47,0.00,,,0.00,WeatherCatV1.21B27,2013-08-13 16:51:00,
2013-08-13 09:56:00,73.0,51.6,29.90,SSE,154,0.0,2.0,47,0.00,,,0.00,WeatherCatV1.21B27,2013-08-13 16:56:00,
2013-08-13 10:01:00,73.3,51.8,29.90,SSE,154,0.0,1.0,47,0.00,,,0.00,WeatherCatV1.21B27,2013-08-13 17:01:00,
2013-08-13 10:06:00,73.5,52.0,29.90,SSE,153,0.0,1.0,47,0.00,,,0.00,WeatherCatV1.21B27,2013-08-13 17:06:00,
2013-08-13 10:12:00,73.8,52.9,29.90,SSE,162,2.0,2.0,48,0.00,,,0.00,WeatherCatV1.21B27,2013-08-13 17:12:00,
2013-08-13 10:17:00,74.1,52.6,29.90,SSE,152,1.0,2.0,47,0.00,,,0.00,WeatherCatV1.21B27,2013-08-13 17:17:00,
2013-08-13 10:22:00,74.4,52.8,29.90,SSE,154,0.0,2.0,47,0.00,,,0.00,WeatherCatV1.21B27,2013-08-13 17:22:00,
2013-08-13 10:27:00,74.7,53.7,29.90,SSE,151,0.0,2.0,48,0.00,,,0.00,WeatherCatV1.21B27,2013-08-13 17:27:00,
2013-08-13 10:32:00,75.0,54.0,29.90,SE,130,0.0,1.0,48,0.00,,,0.00,WeatherCatV1.21B27,2013-08-13 17:32:00,
2013-08-13 10:37:00,75.3,54.2,29.90,SE,146,0.0,1.0,48,0.00,,,0.00,WeatherCatV1.21B27,2013-08-13 17:37:00,
2013-08-13 10:42:00,75.5,53.8,29.90,SSE,151,0.0,2.0,47,0.00,,,0.00,WeatherCatV1.21B27,2013-08-13 17:42:00,
2013-08-13 10:47:00,75.6,54.5,29.91,SSE,160,2.0,2.0,48,0.00,,,0.00,WeatherCatV1.21B27,2013-08-13 17:47:00,
2013-08-13 10:52:00,75.9,54.2,29.91,SSE,159,0.0,2.0,47,0.00,,,0.00,WeatherCatV1.21B27,2013-08-13 17:52:00,
2013-08-13 10:57:00,76.3,54.6,29.91,SSE,148,0.0,1.0,47,0.00,,,0.00,WeatherCatV1.21B27,2013-08-13 17:57:00,
2013-08-13 11:02:00,76.6,54.2,29.90,SSE,148,1.0,1.0,46,0.00,,,0.00,WeatherCatV1.21B27,2013-08-13 18:02:00,
2013-08-13 11:07:00,77.0,53.4,29.90,SSE,151,0.0,3.0,44,0.00,,,0.00,WeatherCatV1.21B27,2013-08-13 18:07:00,
2013-08-13 11:12:00,77.4,53.8,29.90,SE,141,0.0,1.0,44,0.00,,,0.00,WeatherCatV1.21B27,2013-08-13 18:12:00,
2013-08-13 11:17:00,77.8,53.5,29.91,SSE,153,0.0,2.0,43,0.00,,,0.00,WeatherCatV1.21B27,2013-08-13 18:17:00,
2013-08-13 11:22:00,78.3,54.6,29.91,SE,138,0.0,1.0,44,0.00,,,0.00,WeatherCatV1.21B27,2013-08-13 18:22:00,
2013-08-13 11:27:00,79.0,55.2,29.91,SSE,159,2.0,3.0,44,0.00,,,0.00,WeatherCatV1.21B27,2013-08-13 18:27:00,
2013-08-13 11:32:00,79.3,56.1,29.91,SSE,152,0.0,2.0,45,0.00,,,0.00,WeatherCatV1.21B27,2013-08-13 18:32:00,
2013-08-13 11:37:00,80.0,56.7,29.91,SE,140,1.0,1.0,45,0.00,,,0.00,WeatherCatV1.21B27,2013-08-13 18:37:00,
2013-08-13 11:42:00,80.9,55.6,29.91,SSE,158,0.0,2.0,42,0.00,,,0.00,WeatherCatV1.21B27,2013-08-13 18:42:00,
2013-08-13 11:47:00,81.4,54.0,29.91,SE,137,0.0,0.0,39,0.00,,,0.00,WeatherCatV1.21B27,2013-08-13 18:47:00,
2013-08-13 11:52:00,82.2,54.0,29.91,SE,146,2.0,2.0,38,0.00,,,0.00,WeatherCatV1.21B27,2013-08-13 18:52:00,
2013-08-13 11:57:00,83.3,50.3,29.91,SE,142,0.0,2.0,32,0.00,,,0.00,WeatherCatV1.21B27,2013-08-13 18:57:00,
2013-08-13 12:02:00,83.6,53.8,29.90,SE,142,1.0,1.0,36,0.00,,,0.00,WeatherCatV1.21B27,2013-08-13 19:02:00,
2013-08-13 12:07:00,83.9,50.8,29.90,SE,130,1.0,1.0,32,0.00,,,0.00,WeatherCatV1.21B27,2013-08-13 19:07:00,
2013-08-13 12:12:00,84.3,52.8,29.90,SE,145,0.0,2.0,34,0.00,,,0.00,WeatherCatV1.21B27,2013-08-13 19:12:00,
2013-08-13 12:17:00,84.7,52.4,29.90,SE,146,1.0,1.0,33,0.00,,,0.00,WeatherCatV1.21B27,2013-08-13 19:17:00,
2013-08-13 12:22:00,85.2,53.6,29.90,SE,139,0.0,1.0,34,0.00,,,0.00,WeatherCatV1.21B27,2013-08-13 19:22:00,
2013-08-13 12:27:00,85.7,53.2,29.90,SSE,150,0.0,3.0,33,0.00,,,0.00,WeatherCatV1.21B27,2013-08-13 19:27:00,
2013-08-13 12:32:00,85.5,53.1,29.90,SE,135,1.0,2.0,33,0.00,,,0.00,WeatherCatV1.21B27,2013-08-13 19:32:00,
2013-08-13 12:37:00,85.5,53.1,29.90,SE,126,0.0,1.0,33,0.00,,,0.00,WeatherCatV1.21B27,2013-08-13 19:37:00,
2013-08-13 12:42:00,85.8,52.5,29.90,SE,134,0.0,1.0,32,0.00,,,0.00,WeatherCatV1.21B27,2013-08-13 19:42:00,
2013-08-13 12:47:00,86.1,52.8,29.90,SE,129,0.0,3.0,32,0.00,,,0.00,WeatherCatV1.21B27,2013-08-13 19:47:00,
2013-08-13 12:52:00,86.2,50.2,29.90,NW,312,0.0,3.0,29,0.00,,,0.00,WeatherCatV1.21B27,2013-08-13 19:52:00,
2013-08-13 12:57:00,86.4,50.3,29.90,NW,312,0.0,3.0,29,0.00,,,0.00,WeatherCatV1.21B27,2013-08-13 19:57:00,
2013-08-13 13:02:00,86.6,50.5,29.90,ESE,108,1.0,1.0,29,0.00,,,0.00,WeatherCatV1.21B27,2013-08-13 20:02:00,
2013-08-13 13:07:00,86.9,50.8,29.90,SE,133,0.0,1.0,29,0.00,,,0.00,WeatherCatV1.21B27,2013-08-13 20:07:00,
2013-08-13 13:12:00,87.2,50.1,29.90,SE,142,1.0,3.0,28,0.00,,,0.00,WeatherCatV1.21B27,2013-08-13 20:12:00,
2013-08-13 13:17:00,87.2,50.1,29.90,SE,145,0.0,1.0,28,0.00,,,0.00,WeatherCatV1.21B27,2013-08-13 20:17:00,
2013-08-13 13:22:00,86.9,49.8,29.90,SE,142,0.0,2.0,28,0.00,,,0.00,WeatherCatV1.21B27,2013-08-13 20:22:00,
2013-08-13 13:27:00,86.9,50.8,29.90,SSE,156,0.0,1.0,29,0.00,,,0.00,WeatherCatV1.21B27,2013-08-13 20:27:00,
2013-08-13 13:32:00,86.7,48.7,29.90,SE,143,0.0,3.0,27,0.00,,,0.00,WeatherCatV1.21B27,2013-08-13 20:32:00,
2013-08-13 13:37:00,87.0,48.9,29.90,SE,138,0.0,2.0,27,0.00,,,0.00,WeatherCatV1.21B27,2013-08-13 20:37:00,
2013-08-13 13:42:00,87.4,47.2,29.90,SE,138,2.0,4.0,25,0.00,,,0.00,WeatherCatV1.21B27,2013-08-13 20:42:00,
2013-08-13 13:47:00,87.5,47.3,29.90,SE,125,3.0,3.0,25,0.00,,,0.00,WeatherCatV1.21B27,2013-08-13 20:47:00,
2013-08-13 13:52:00,87.4,45.0,29.90,SSE,164,1.0,1.0,23,0.00,,,0.00,WeatherCatV1.21B27,2013-08-13 20:52:00,
2013-08-13 13:57:00,87.2,44.8,29.90,NNW,334,1.0,3.0,23,0.00,,,0.00,WeatherCatV1.21B27,2013-08-13 20:57:00,
2013-08-13 14:02:00,86.8,45.6,29.90,ESE,115,1.0,2.0,24,0.00,,,0.00,WeatherCatV1.21B27,2013-08-13 21:02:00,
2013-08-13 14:07:00,86.8,45.6,29.90,SE,145,1.0,2.0,24,0.00,,,0.00,WeatherCatV1.21B27,2013-08-13 21:07:00,
2013-08-13 14:12:00,86.4,46.4,29.90,SE,140,1.0,2.0,25,0.00,,,0.00,WeatherCatV1.21B27,2013-08-13 21:12:00,
2013-08-13 14:17:00,86.1,42.8,29.90,SE,138,2.0,3.0,22,0.00,,,0.00,WeatherCatV1.21B27,2013-08-13 21:17:00,
2013-08-13 14:22:00,85.7,43.6,29.90,SE,142,0.0,1.0,23,0.00,,,0.00,WeatherCatV1.21B27,2013-08-13 21:22:00,
2013-08-13 14:27:00,85.7,46.8,29.90,SSE,148,1.0,3.0,26,0.00,,,0.00,WeatherCatV1.21B27,2013-08-13 21:27:00,
2013-08-13 14:32:00,85.8,47.9,29.90,SE,138,0.0,2.0,27,0.00,,,0.00,WeatherCatV1.21B27,2013-08-13 21:32:00,
2013-08-13 14:37:00,85.3,46.5,29.90,SE,139,1.0,4.0,26,0.00,,,0.00,WeatherCatV1.21B27,2013-08-13 21:37:00,
2013-08-13 14:42:00,84.8,49.0,29.90,SE,135,1.0,1.0,29,0.00,,,0.00,WeatherCatV1.21B27,2013-08-13 21:42:00,
2013-08-13 14:47:00,84.4,48.6,29.90,North,2,0.0,1.0,29,0.00,,,0.00,WeatherCatV1.21B27,2013-08-13 21:47:00,
2013-08-13 14:52:00,84.2,50.2,29.90,SE,146,0.0,0.0,31,0.00,,,0.00,WeatherCatV1.21B27,2013-08-13 21:52:00,
2013-08-13 14:57:00,84.2,50.2,29.90,SE,144,0.0,3.0,31,0.00,,,0.00,WeatherCatV1.21B27,2013-08-13 21:57:00,
2013-08-13 15:02:00,84.2,49.4,29.90,SE,139,0.0,1.0,30,0.00,,,0.00,WeatherCatV1.21B27,2013-08-13 22:02:00,
2013-08-13 15:07:00,83.9,50.0,29.90,ESE,123,0.0,2.0,31,0.00,,,0.00,WeatherCatV1.21B27,2013-08-13 22:07:00,
2013-08-13 15:12:00,83.7,49.8,29.90,SE,131,0.0,0.0,31,0.00,,,0.00,WeatherCatV1.21B27,2013-08-13 22:12:00,
2013-08-13 15:17:00,83.8,50.8,29.90,East,94,1.0,1.0,32,0.00,,,0.00,WeatherCatV1.21B27,2013-08-13 22:17:00,
2013-08-13 15:22:00,83.7,50.7,29.90,SE,139,0.0,2.0,32,0.00,,,0.00,WeatherCatV1.21B27,2013-08-13 22:22:00,
2013-08-13 15:27:00,83.5,47.9,29.90,SSE,150,0.0,3.0,29,0.00,,,0.00,WeatherCatV1.21B27,2013-08-13 22:27:00,
2013-08-13 15:32:00,83.3,49.5,29.89,SE,146,0.0,1.0,31,0.00,,,0.00,WeatherCatV1.21B27,2013-08-13 22:32:00,
2013-08-13 15:37:00,83.2,50.2,29.89,NNE,17,0.0,3.0,32,0.00,,,0.00,WeatherCatV1.21B27,2013-08-13 22:37:00,
2013-08-13 15:42:00,83.0,49.2,29.89,SE,131,1.0,1.0,31,0.00,,,0.00,WeatherCatV1.21B27,2013-08-13 22:42:00,
2013-08-13 15:47:00,82.8,49.0,29.89,NNE,21,0.0,1.0,31,0.00,,,0.00,WeatherCatV1.21B27,2013-08-13 22:47:00,
2013-08-13 15:52:00,82.7,48.1,29.89,SE,133,0.0,1.0,30,0.00,,,0.00,WeatherCatV1.21B27,2013-08-13 22:52:00,
2013-08-13 15:57:00,82.4,48.7,29.89,SSE,166,0.0,1.0,31,0.00,,,0.00,WeatherCatV1.21B27,2013-08-13 22:57:00,
2013-08-13 16:02:00,82.4,47.8,29.89,SSE,156,0.0,1.0,30,0.00,,,0.00,WeatherCatV1.21B27,2013-08-13 23:02:00,
2013-08-13 16:07:00,82.5,47.0,29.89,SE,139,0.0,0.0,29,0.00,,,0.00,WeatherCatV1.21B27,2013-08-13 23:07:00,
2013-08-13 16:12:00,82.5,47.0,29.89,SE,144,1.0,2.0,29,0.00,,,0.00,WeatherCatV1.21B27,2013-08-13 23:12:00,
2013-08-13 16:17:00,82.3,46.8,29.88,SE,143,1.0,2.0,29,0.00,,,0.00,WeatherCatV1.21B27,2013-08-13 23:17:00,
2013-08-13 16:22:00,82.1,46.7,29.88,ESE,113,1.0,1.0,29,0.00,,,0.00,WeatherCatV1.21B27,2013-08-13 23:22:00,
2013-08-13 16:27:00,81.9,47.4,29.88,NNW,341,0.0,2.0,30,0.00,,,0.00,WeatherCatV1.21B27,2013-08-13 23:27:00,
2013-08-13 16:32:00,81.8,46.4,29.88,ESE,121,1.0,1.0,29,0.00,,,0.00,WeatherCatV1.21B27,2013-08-13 23:32:00,
2013-08-13 16:37:00,81.7,47.2,29.88,SE,135,0.0,1.0,30,0.00,,,0.00,WeatherCatV1.21B27,2013-08-13 23:37:00,
2013-08-13 16:42:00,81.5,47.0,29.88,SSE,164,0.0,2.0,30,0.00,,,0.00,WeatherCatV1.21B27,2013-08-13 23:42:00,
2013-08-13 16:47:00,81.4,46.1,29.88,SSE,158,0.0,0.0,29,0.00,,,0.00,WeatherCatV1.21B27,2013-08-13 23:47:00,
2013-08-13 16:52:00,81.2,45.9,29.88,ESE,112,0.0,1.0,29,0.00,,,0.00,WeatherCatV1.21B27,2013-08-13 23:52:00,
2013-08-13 16:57:00,81.1,45.8,29.88,ESE,120,0.0,0.0,29,0.00,,,0.00,WeatherCatV1.21B27,2013-08-13 23:57:00,
2013-08-13 17:02:00,81.1,43.9,29.88,ESE,117,0.0,0.0,27,0.00,,,0.00,WeatherCatV1.21B27,2013-08-14 00:02:00,
2013-08-13 17:07:00,81.2,38.7,29.88,ESE,117,0.0,0.0,22,0.00,,,0.00,WeatherCatV1.21B27,2013-08-14 00:07:00,
2013-08-13 17:12:00,81.2,38.7,29.88,ESE,117,0.0,0.0,22,0.00,,,0.00,WeatherCatV1.21B27,2013-08-14 00:12:00,
2013-08-13 17:17:00,81.3,42.1,29.88,SE,130,2.0,2.0,25,0.00,,,0.00,WeatherCatV1.21B27,2013-08-14 00:17:00,
2013-08-13 17:22:00,81.3,39.9,29.88,SE,134,0.0,1.0,23,0.00,,,0.00,WeatherCatV1.21B27,2013-08-14 00:22:00,
2013-08-13 17:27:00,81.2,43.0,29.88,SE,134,0.0,1.0,26,0.00,,,0.00,WeatherCatV1.21B27,2013-08-14 00:27:00,
2013-08-13 17:32:00,81.1,42.9,29.88,SE,132,0.0,1.0,26,0.00,,,0.00,WeatherCatV1.21B27,2013-08-14 00:32:00,
2013-08-13 17:37:00,81.0,42.9,29.88,SE,131,0.0,1.0,26,0.00,,,0.00,WeatherCatV1.21B27,2013-08-14 00:37:00,
2013-08-13 17:42:00,80.8,42.7,29.88,SE,128,0.0,1.0,26,0.00,,,0.00,WeatherCatV1.21B27,2013-08-14 00:42:00,
2013-08-13 17:47:00,80.7,42.6,29.88,SE,127,0.0,0.0,26,0.00,,,0.00,WeatherCatV1.21B27,2013-08-14 00:47:00,
2013-08-13 17:52:00,80.5,43.4,29.88,SE,127,0.0,0.0,27,0.00,,,0.00,WeatherCatV1.21B27,2013-08-14 00:52:00,
2013-08-13 17:57:00,80.3,44.2,29.88,SE,127,0.0,0.0,28,0.00,,,0.00,WeatherCatV1.21B27,2013-08-14 00:57:00,
2013-08-13 18:02:00,80.1,44.0,29.88,SE,127,0.0,1.0,28,0.00,,,0.00,WeatherCatV1.21B27,2013-08-14 01:02:00,
2013-08-13 18:07:00,80.0,45.8,29.88,SE,127,0.0,0.0,30,0.00,,,0.00,WeatherCatV1.21B27,2013-08-14 01:07:00,
2013-08-13 18:12:00,79.9,47.4,29.88,SE,127,0.0,0.0,32,0.00,,,0.00,WeatherCatV1.21B27,2013-08-14 01:12:00,
2013-08-13 18:17:00,79.7,48.8,29.88,SE,127,0.0,1.0,34,0.00,,,0.00,WeatherCatV1.21B27,2013-08-14 01:17:00,
2013-08-13 18:22:00,79.5,50.2,29.88,NNW,329,0.0,3.0,36,0.00,,,0.00,WeatherCatV1.21B27,2013-08-14 01:22:00,
2013-08-13 18:27:00,79.3,50.7,29.88,NNW,343,0.0,0.0,37,0.00,,,0.00,WeatherCatV1.21B27,2013-08-14 01:27:00,
2013-08-13 18:32:00,79.3,50.7,29.87,NNW,333,2.0,2.0,37,0.00,,,0.00,WeatherCatV1.21B27,2013-08-14 01:32:00,
2013-08-13 18:37:00,79.1,51.3,29.87,NNW,335,1.0,5.0,38,0.00,,,0.00,WeatherCatV1.21B27,2013-08-14 01:37:00,
2013-08-13 18:42:00,78.8,51.7,29.87,NNW,336,1.0,3.0,39,0.00,,,0.00,WeatherCatV1.21B27,2013-08-14 01:42:00,
2013-08-13 18:47:00,78.5,52.2,29.86,NNW,337,0.0,3.0,40,0.00,,,0.00,WeatherCatV1.21B27,2013-08-14 01:47:00,
2013-08-13 18:52:00,78.1,52.5,29.86,NNW,333,3.0,4.0,41,0.00,,,0.00,WeatherCatV1.21B27,2013-08-14 01:52:00,
2013-08-13 18:57:00,77.7,52.8,29.86,NNW,341,1.0,3.0,42,0.00,,,0.00,WeatherCatV1.21B27,2013-08-14 01:57:00,
2013-08-13 19:02:00,77.3,53.0,29.87,NNW,336,1.0,2.0,43,0.00,,,0.00,WeatherCatV1.21B27,2013-08-14 02:02:00,
2013-08-13 19:07:00,76.8,53.2,29.87,NNE,27,1.0,4.0,44,0.00,,,0.00,WeatherCatV1.21B27,2013-08-14 02:07:00,
2013-08-13 19:12:00,76.3,53.4,29.87,NNW,329,1.0,1.0,45,0.00,,,0.00,WeatherCatV1.21B27,2013-08-14 02:12:00,
2013-08-13 19:17:00,75.9,53.6,29.87,NNW,345,0.0,4.0,46,0.00,,,0.00,WeatherCatV1.21B27,2013-08-14 02:17:00,
2013-08-13 19:22:00,75.5,53.2,29.87,NNW,339,1.0,2.0,46,0.00,,,0.00,WeatherCatV1.21B27,2013-08-14 02:22:00,
2013-08-13 19:27:00,75.2,53.6,29.87,NNW,338,2.0,3.0,47,0.00,,,0.00,WeatherCatV1.21B27,2013-08-14 02:27:00,
2013-08-13 19:32:00,74.7,53.1,29.87,NNW,339,2.0,4.0,47,0.00,,,0.00,WeatherCatV1.21B27,2013-08-14 02:32:00,
2013-08-13 19:37:00,74.2,53.2,29.87,NNW,336,2.0,4.0,48,0.00,,,0.00,WeatherCatV1.21B27,2013-08-14 02:37:00,
2013-08-13 19:42:00,73.8,53.4,29.87,NNW,335,3.0,4.0,49,0.00,,,0.00,WeatherCatV1.21B27,2013-08-14 02:42:00,
2013-08-13 19:47:00,73.4,53.1,29.87,NNW,332,3.0,3.0,49,0.00,,,0.00,WeatherCatV1.21B27,2013-08-14 02:47:00,
2013-08-13 19:52:00,73.0,53.2,29.87,North,2,3.0,6.0,50,0.00,,,0.00,WeatherCatV1.21B27,2013-08-14 02:52:00,
2013-08-13 19:57:00,72.5,53.3,29.87,NNW,333,4.0,6.0,51,0.00,,,0.00,WeatherCatV1.21B27,2013-08-14 02:57:00,
2013-08-13 20:02:00,72.1,54.0,29.88,NNW,341,6.0,7.0,53,0.00,,,0.00,WeatherCatV1.21B27,2013-08-14 03:02:00,
2013-08-13 20:07:00,71.7,53.6,29.88,NNW,340,5.0,7.0,53,0.00,,,0.00,WeatherCatV1.21B27,2013-08-14 03:07:00,
2013-08-13 20:12:00,71.5,53.5,29.88,NNW,331,4.0,6.0,53,0.00,,,0.00,WeatherCatV1.21B27,2013-08-14 03:12:00,
2013-08-13 20:17:00,71.7,53.1,29.87,NNW,334,5.0,6.0,52,0.00,,,0.00,WeatherCatV1.21B27,2013-08-14 03:17:00,
2013-08-13 20:22:00,72.1,53.0,29.87,NNW,338,5.0,7.0,51,0.00,,,0.00,WeatherCatV1.21B27,2013-08-14 03:22:00,
2013-08-13 20:27:00,72.3,52.6,29.87,NNW,340,3.0,6.0,50,0.00,,,0.00,WeatherCatV1.21B27,2013-08-14 03:27:00,
2013-08-13 20:32:00,72.5,52.2,29.87,NNW,333,7.0,8.0,49,0.00,,,0.00,WeatherCatV1.21B27,2013-08-14 03:32:00,
2013-08-13 20:37:00,72.7,50.7,29.87,NNW,332,6.0,7.0,46,0.00,,,0.00,WeatherCatV1.21B27,2013-08-14 03:37:00,
2013-08-13 20:42:00,73.2,50.6,29.87,NW,326,5.0,6.0,45,0.00,,,0.00,WeatherCatV1.21B27,2013-08-14 03:42:00,
2013-08-13 20:47:00,73.5,47.0,29.88,NNW,329,3.0,5.0,39,0.00,,,0.00,WeatherCatV1.21B27,2013-08-14 03:47:00,
2013-08-13 20:52:00,73.7,46.5,29.88,NNW,332,3.0,4.0,38,0.00,,,0.00,WeatherCatV1.21B27,2013-08-14 03:52:00,
2013-08-13 20:57:00,73.7,46.5,29.88,NNW,331,4.0,6.0,38,0.00,,,0.00,WeatherCatV1.21B27,2013-08-14 03:57:00,
2013-08-13 21:01:00,73.5,47.0,29.88,NNW,338,3.0,4.0,39,0.00,,,0.00,WeatherCatV1.21B27,2013-08-14 04:01:00,
2013-08-13 21:06:00,73.0,45.9,29.88,NNW,329,4.0,5.0,38,0.00,,,0.00,WeatherCatV1.21B27,2013-08-14 04:06:00,
2013-08-13 21:11:00,72.8,44.3,29.88,NNW,333,3.0,4.0,36,0.00,,,0.00,WeatherCatV1.21B27,2013-08-14 04:11:00,
2013-08-13 21:16:00,72.9,43.6,29.88,NNW,330,4.0,4.0,35,0.00,,,0.00,WeatherCatV1.21B27,2013-08-14 04:16:00,
2013-08-13 21:21:00,73.1,42.3,29.88,NNW,334,2.0,4.0,33,0.00,,,0.00,WeatherCatV1.21B27,2013-08-14 04:21:00,
2013-08-13 21:26:00,73.5,40.2,29.88,NNW,338,2.0,3.0,30,0.00,,,0.00,WeatherCatV1.21B27,2013-08-14 04:26:00,
2013-08-13 21:31:00,73.6,39.4,29.88,NNW,329,1.0,3.0,29,0.00,,,0.00,WeatherCatV1.21B27,2013-08-14 04:31:00,
2013-08-13 21:36:00,73.7,41.2,29.88,NNW,333,0.0,1.0,31,0.00,,,0.00,WeatherCatV1.21B27,2013-08-14 04:36:00,
2013-08-13 21:41:00,73.6,41.1,29.88,NNW,333,1.0,1.0,31,0.00,,,0.00,WeatherCatV1.21B27,2013-08-14 04:41:00,
2013-08-13 21:46:00,73.3,41.7,29.89,NNW,332,2.0,3.0,32,0.00,,,0.00,WeatherCatV1.21B27,2013-08-14 04:46:00,
2013-08-13 21:51:00,73.0,41.4,29.89,NNW,332,0.0,1.0,32,0.00,,,0.00,WeatherCatV1.21B27,2013-08-14 04:51:00,
2013-08-13 21:56:00,72.5,41.0,29.89,NNW,333,2.0,3.0,32,0.00,,,0.00,WeatherCatV1.21B27,2013-08-14 04:56:00,
2013-08-13 22:01:00,72.1,40.6,29.89,NNW,337,0.0,2.0,32,0.00,,,0.00,WeatherCatV1.21B27,2013-08-14 05:01:00,
2013-08-13 22:06:00,72.0,39.7,29.89,NNW,337,0.0,1.0,31,0.00,,,0.00,WeatherCatV1.21B27,2013-08-14 05:06:00,
2013-08-13 22:11:00,71.9,38.8,29.89,NNW,337,0.0,0.0,30,0.00,,,0.00,WeatherCatV1.21B27,2013-08-14 05:11:00,
2013-08-13 22:16:00,71.8,38.7,29.89,NNW,337,0.0,0.0,30,0.00,,,0.00,WeatherCatV1.21B27,2013-08-14 05:16:00,
2013-08-13 22:21:00,71.6,38.5,29.89,NNW,337,0.0,1.0,30,0.00,,,0.00,WeatherCatV1.21B27,2013-08-14 05:21:00,
2013-08-13 22:26:00,71.4,37.5,29.89,NNW,337,0.0,0.0,29,0.00,,,0.00,WeatherCatV1.21B27,2013-08-14 05:26:00,
2013-08-13 22:31:00,71.3,37.4,29.88,NNW,337,0.0,0.0,29,0.00,,,0.00,WeatherCatV1.21B27,2013-08-14 05:31:00,
2013-08-13 22:36:00,71.2,37.3,29.88,NNW,337,0.0,0.0,29,0.00,,,0.00,WeatherCatV1.21B27,2013-08-14 05:36:00,
2013-08-13 22:41:00,71.1,37.2,29.88,NNW,337,0.0,0.0,29,0.00,,,0.00,WeatherCatV1.21B27,2013-08-14 05:41:00,
2013-08-13 22:46:00,70.9,36.2,29.88,NNW,337,0.0,0.0,28,0.00,,,0.00,WeatherCatV1.21B27,2013-08-14 05:46:00,
2013-08-13 22:51:00,70.9,37.0,29.88,NNW,337,0.0,0.0,29,0.00,,,0.00,WeatherCatV1.21B27,2013-08-14 05:51:00,
2013-08-13 22:56:00,70.9,37.0,29.88,NNW,337,0.0,0.0,29,0.00,,,0.00,WeatherCatV1.21B27,2013-08-14 05:56:00,
2013-08-13 23:01:00,70.8,39.5,29.89,NNW,337,0.0,0.0,32,0.00,,,0.00,WeatherCatV1.21B27,2013-08-14 06:01:00,
2013-08-13 23:06:00,70.7,42.4,29.89,NNW,337,0.0,0.0,36,0.00,,,0.00,WeatherCatV1.21B27,2013-08-14 06:06:00,
2013-08-13 23:11:00,70.6,43.0,29.89,NNW,337,0.0,0.0,37,0.00,,,0.00,WeatherCatV1.21B27,2013-08-14 06:11:00,
2013-08-13 23:16:00,70.4,44.9,29.89,NNW,337,0.0,0.0,40,0.00,,,0.00,WeatherCatV1.21B27,2013-08-14 06:16:00,
2013-08-13 23:21:00,70.0,45.2,29.89,NNW,337,0.0,0.0,41,0.00,,,0.00,WeatherCatV1.21B27,2013-08-14 06:21:00,
2013-08-13 23:26:00,69.7,44.9,29.89,NNW,337,0.0,0.0,41,0.00,,,0.00,WeatherCatV1.21B27,2013-08-14 06:26:00,
2013-08-13 23:31:00,69.4,45.3,29.89,NNW,337,0.0,0.0,42,0.00,,,0.00,WeatherCatV1.21B27,2013-08-14 06:31:00,
2013-08-13 23:36:00,69.1,44.4,29.89,NNW,337,0.0,0.0,41,0.00,,,0.00,WeatherCatV1.21B27,2013-08-14 06:36:00,
2013-08-13 23:41:00,68.8,45.4,29.89,NNW,337,0.0,0.0,43,0.00,,,0.00,WeatherCatV1.21B27,2013-08-14 06:41:00,
2013-08-13 23:46:00,68.5,45.7,29.88,NNW,337,0.0,0.0,44,0.00,,,0.00,WeatherCatV1.21B27,2013-08-14 06:46:00,
2013-08-13 23:51:00,68.4,47.4,29.88,NNW,337,0.0,0.0,47,0.00,,,0.00,WeatherCatV1.21B27,2013-08-14 06:51:00,
2013-08-13 23:56:00,68.2,47.2,29.88,NNW,337,0.0,0.0,47,0.00,,,0.00,WeatherCatV1.21B27,2013-08-14 06:56:00,